This is the latest recevied weather packets stored in our database for station/object DL1VED. If no packets are shown the sender has not sent any weather packets the latest 10 day(s).
| Time | Temp. | Humidity | Pressure | Rain* | Wind** | Luminosity | Snow |
|---|---|---|---|---|---|---|---|
| 1778028247 | 13.33° C | 87% | 1005.2 hPa | 1.78 mm | - | - | - |
| 1778027347 | 13.33° C | 87% | 1005.3 hPa | 1.27 mm | - | - | - |
| 1778026447 | 13.33° C | 87% | 1005.4 hPa | 0 mm | - | - | - |
| 1778025547 | 13.33° C | 87% | 1005.6 hPa | 0 mm | - | - | - |
| 1778024647 | 13.33° C | 87% | 1005.7 hPa | 0 mm | - | - | - |
| 1778023747 | 13.33° C | 87% | 1005.9 hPa | 0 mm | - | - | - |
| 1778022847 | 13.33° C | 86% | 1005.9 hPa | 0 mm | - | - | - |
| 1778021947 | 13.33° C | 86% | 1006 hPa | 0.25 mm | - | - | - |
| 1778021047 | 13.33° C | 87% | 1006 hPa | 0.25 mm | - | - | - |
| 1778020147 | 13.33° C | 87% | 1006.1 hPa | 0.51 mm | - | - | - |
| 1778019247 | 13.33° C | 87% | 1006.2 hPa | 2.03 mm | - | - | - |
| 1778018347 | 13.33° C | 87% | 1006.2 hPa | 2.29 mm | - | - | - |
| 1778017447 | 13.33° C | 87% | 1006.2 hPa | 3.56 mm | - | - | - |
| 1778016547 | 13.33° C | 86% | 1006.3 hPa | 4.32 mm | - | - | - |
| 1778015647 | 13.33° C | 86% | 1006.3 hPa | 3.3 mm | - | - | - |
| 1778014747 | 13.33° C | 86% | 1006.3 hPa | 3.05 mm | - | - | - |
| 1778013847 | 13.33° C | 86% | 1006.3 hPa | 1.78 mm | - | - | - |
| 1778012947 | 13.33° C | 85% | 1006.4 hPa | 0.76 mm | - | - | - |
| 1778012048 | 13.33° C | 86% | 1006.4 hPa | 0.51 mm | - | - | - |
| 1778011199 | 13.33° C | 86% | 1006.4 hPa | 0.25 mm | - | - | - |
| 1778011147 | 13.33° C | 86% | 1006.4 hPa | 0.25 mm | - | - | - |
| 1778010247 | 13.89° C | 86% | 1006.4 hPa | 0.25 mm | - | - | - |
| 1778009347 | 13.89° C | 86% | 1006.3 hPa | 0.25 mm | - | - | - |
| 1778008447 | 13.89° C | 85% | 1006.2 hPa | 0 mm | - | - | - |
| 1778007548 | 13.89° C | 84% | 1006.2 hPa | 0 mm | - | - | - |
* Rain latest hour (hover to see other rain measurements)
** Current wind speed in m/s (hover to see current wind gust speed)